User: anonymous   Login
Location: Unspecified
(0.0000°N, 0.0000°E)
Time: 22:45:26
(UTC+00:00)
Language:

NODES 2 - Orbit

View from above orbital plane
View from above orbital plane
View from above satellite
View from above satellite

Ground track
Ground track

The orbit data is extracted from the following two-line orbital elements,

1 41478U 98067HY  17113.87277802 +.00099666 +00000-0 +62845-3 0  9992
2 41478 051.6323 284.6960 0003440 247.8601 112.2034 15.75850858053485
Epoch (UTC): 23 April 2017 20:56:48
Eccentricity: 0.0003440
inclination: 51.6323°
perigee height: 340 km
apogee height: 344 km
right ascension of ascending node: 284.6960°
argument of perigee: 247.8601°
revolutions per day: 15.75850858
mean anomaly at epoch: 112.2034°
orbit number at epoch: 5348

The dashed part of the orbit path shows where the satellite is in the earth's shadow,  

DLR